VLG25ZK LEBL-LEZL

Flight info

Callsign VLG25ZK
Flight time 1h 17m
Altitude 31000
Route LOTOS DCT TORDU DCT DIKUT DCT SOPET DCT VLC DCT SERRA DCT ASTRO DCT POBOS DCT XEBAR DCT YES DCT BLN
Aircraft A321/M-SDFGHILORVWXY/LB1

Departure

Time 2026-04-15 08:32
Airport Josep Tarradellas Barcelona-El Prat Airport (LEBL)

Arrival

Time 2026-04-15 09:50
Airport Seville Airport (LEZL)
Time Latitude Longitude Altitude Speed Heading
2026-04-15 08:06 41.29232 2.08159 22 ft 0 kts 180°
2026-04-15 08:23 41.29237 2.08159 22 ft 2 kts 180°
2026-04-15 08:23 41.29251 2.08159 22 ft 2 kts 180°
2026-04-15 08:23 41.29266 2.08159 22 ft 2 kts 180°
2026-04-15 08:23 41.29277 2.08159 22 ft 0 kts 180°
2026-04-15 08:24 41.29289 2.08157 22 ft 2 kts 149°
2026-04-15 08:24 41.29300 2.08142 22 ft 2 kts 112°
2026-04-15 08:24 41.29302 2.08122 22 ft 1 kts 76°
2026-04-15 08:24 41.29299 2.08115 22 ft 1 kts 60°
2026-04-15 08:25 41.29298 2.08109 22 ft 0 kts 65°
2026-04-15 08:26 41.29310 2.08144 22 ft 8 kts 66°
2026-04-15 08:26 41.29337 2.08225 22 ft 10 kts 65°
2026-04-15 08:27 41.29369 2.08322 22 ft 11 kts 76°
2026-04-15 08:27 41.29321 2.08400 22 ft 12 kts 156°
2026-04-15 08:27 41.29245 2.08450 22 ft 13 kts 154°
2026-04-15 08:27 41.29187 2.08486 22 ft 14 kts 155°
2026-04-15 08:28 41.29141 2.08514 22 ft 14 kts 155°
2026-04-15 08:28 41.28991 2.08603 22 ft 16 kts 155°
2026-04-15 08:28 41.28949 2.08629 22 ft 16 kts 156°
2026-04-15 08:28 41.28947 2.08630 22 ft 16 kts 156°
2026-04-15 08:29 41.28894 2.08826 22 ft 17 kts 66°
2026-04-15 08:29 41.28944 2.08973 22 ft 17 kts 65°
2026-04-15 08:29 41.28996 2.09123 22 ft 18 kts 65°
2026-04-15 08:29 41.29049 2.09279 22 ft 18 kts 65°
2026-04-15 08:30 41.29104 2.09436 22 ft 18 kts 65°
2026-04-15 08:30 41.29160 2.09597 22 ft 19 kts 65°
2026-04-15 08:30 41.29216 2.09760 22 ft 19 kts 65°
2026-04-15 08:30 41.29277 2.09923 22 ft 19 kts 58°
2026-04-15 08:31 41.29337 2.10083 22 ft 19 kts 65°
2026-04-15 08:31 41.29348 2.10249 22 ft 19 kts 133°
2026-04-15 08:31 41.29259 2.10315 22 ft 6 kts 158°
2026-04-15 08:31 41.29225 2.10307 22 ft 7 kts 218°
2026-04-15 08:32 41.29133 2.10066 22 ft 62 kts 246°
2026-04-15 08:32 41.28849 2.09235 23 ft 130 kts 245°
2026-04-15 08:32 41.28415 2.07995 315 ft 156 kts 247°
2026-04-15 08:32 41.27925 2.06700 917 ft 160 kts 234°
2026-04-15 08:33 41.26980 2.05977 1361 ft 168 kts 189°
2026-04-15 08:33 41.25761 2.05956 1632 ft 181 kts 176°
2026-04-15 08:33 41.24455 2.06036 1955 ft 193 kts 178°
2026-04-15 08:33 41.23097 2.06052 2344 ft 202 kts 180°
2026-04-15 08:34 41.21654 2.05999 2738 ft 213 kts 181°
2026-04-15 08:34 41.20085 2.05897 3037 ft 233 kts 182°
2026-04-15 08:34 41.18465 2.05750 3635 ft 239 kts 187°
2026-04-15 08:34 41.16855 2.05190 4351 ft 242 kts 202°
2026-04-15 08:35 41.15340 2.04227 5057 ft 245 kts 207°
2026-04-15 08:35 41.13844 2.03181 5772 ft 248 kts 207°
2026-04-15 08:35 41.12336 2.02121 6500 ft 252 kts 207°
2026-04-15 08:35 41.10764 2.01032 7226 ft 255 kts 207°
2026-04-15 08:36 41.09213 1.99968 7913 ft 260 kts 207°
2026-04-15 08:36 41.07656 1.98736 8575 ft 264 kts 224°
2026-04-15 08:36 41.06657 1.96714 9239 ft 263 kts 255°
2026-04-15 08:36 41.06193 1.94376 9940 ft 265 kts 258°
2026-04-15 08:37 41.05462 1.92098 10407 ft 282 kts 240°
2026-04-15 08:37 41.04278 1.89939 10750 ft 300 kts 234°
2026-04-15 08:37 41.02954 1.87714 11076 ft 318 kts 234°
2026-04-15 08:37 41.01566 1.85337 11406 ft 335 kts 235°
2026-04-15 08:38 41.00149 1.82836 11879 ft 345 kts 236°
2026-04-15 08:38 40.98723 1.80267 12531 ft 349 kts 236°
2026-04-15 08:38 40.97301 1.77674 13204 ft 352 kts 237°
2026-04-15 08:38 40.95865 1.75038 13832 ft 356 kts 237°
2026-04-15 08:39 40.94421 1.72382 14421 ft 361 kts 237°
2026-04-15 08:39 40.92954 1.69681 15020 ft 365 kts 237°
2026-04-15 08:39 40.91474 1.66951 15611 ft 369 kts 238°
2026-04-15 08:39 40.89990 1.64215 16215 ft 372 kts 238°
2026-04-15 08:40 40.88525 1.61516 16818 ft 374 kts 238°
2026-04-15 08:40 40.87000 1.58706 17375 ft 377 kts 239°
2026-04-15 08:40 40.85470 1.55891 17903 ft 381 kts 239°
2026-04-15 08:40 40.83919 1.53037 18428 ft 384 kts 239°
2026-04-15 08:41 40.82368 1.50184 18955 ft 387 kts 239°
2026-04-15 08:41 40.80804 1.47309 19491 ft 390 kts 239°
2026-04-15 08:41 40.79205 1.44377 19999 ft 393 kts 239°
2026-04-15 08:41 40.77615 1.41463 20503 ft 396 kts 239°
2026-04-15 08:42 40.76014 1.38533 20990 ft 399 kts 239°
2026-04-15 08:42 40.74387 1.35559 21462 ft 402 kts 239°
2026-04-15 08:42 40.72754 1.32574 21937 ft 404 kts 238°
2026-04-15 08:42 40.71107 1.29568 22387 ft 407 kts 238°
2026-04-15 08:43 40.69454 1.26556 22833 ft 410 kts 239°
2026-04-15 08:43 40.67784 1.23513 23264 ft 413 kts 239°
2026-04-15 08:43 40.66087 1.20427 23709 ft 415 kts 239°
2026-04-15 08:43 40.64397 1.17354 24144 ft 418 kts 239°
2026-04-15 08:44 40.62686 1.14248 24563 ft 420 kts 239°
2026-04-15 08:44 40.60966 1.11126 24977 ft 423 kts 239°
2026-04-15 08:44 40.59249 1.08017 25386 ft 425 kts 239°
2026-04-15 08:44 40.57526 1.04899 25799 ft 427 kts 239°
2026-04-15 08:45 40.55759 1.01742 26203 ft 430 kts 237°
2026-04-15 08:45 40.53845 0.98676 26585 ft 434 kts 233°
2026-04-15 08:45 40.51826 0.95756 26968 ft 437 kts 232°
2026-04-15 08:45 40.49752 0.92806 27352 ft 439 kts 232°
2026-04-15 08:46 40.47683 0.89870 27710 ft 441 kts 232°
2026-04-15 08:46 40.45610 0.86925 28063 ft 443 kts 232°
2026-04-15 08:46 40.43519 0.83951 28406 ft 445 kts 232°
2026-04-15 08:46 40.41407 0.80947 28802 ft 446 kts 233°
2026-04-15 08:47 40.39330 0.77999 29272 ft 444 kts 233°
2026-04-15 08:47 40.37242 0.75038 29710 ft 443 kts 233°
2026-04-15 08:47 40.35157 0.72078 30075 ft 444 kts 233°
2026-04-15 08:47 40.33060 0.69102 30404 ft 446 kts 233°
2026-04-15 08:48 40.30938 0.66096 30764 ft 447 kts 233°
2026-04-15 08:48 40.28842 0.63133 31097 ft 447 kts 233°
2026-04-15 08:48 40.26730 0.60147 31155 ft 449 kts 233°
2026-04-15 08:49 40.22510 0.54194 31159 ft 448 kts 233°
2026-04-15 08:49 40.18272 0.48229 31162 ft 448 kts 233°
2026-04-15 08:50 40.14048 0.42294 31164 ft 447 kts 233°
2026-04-15 08:50 40.09801 0.36339 31160 ft 446 kts 233°
2026-04-15 08:51 40.05629 0.30501 31164 ft 447 kts 232°
2026-04-15 08:51 40.01401 0.24601 31161 ft 447 kts 232°
2026-04-15 08:52 39.97165 0.18690 31162 ft 446 kts 232°
2026-04-15 08:52 39.92982 0.12862 31163 ft 445 kts 232°
2026-04-15 08:53 39.88773 0.07009 31161 ft 445 kts 232°
2026-04-15 08:53 39.84547 0.01145 31165 ft 444 kts 232°
2026-04-15 08:54 39.80316 -0.04714 31166 ft 444 kts 232°
2026-04-15 08:54 39.76113 -0.10519 31169 ft 444 kts 232°
2026-04-15 08:55 39.71890 -0.16341 31171 ft 443 kts 232°
2026-04-15 08:55 39.67718 -0.22082 31175 ft 442 kts 232°
2026-04-15 08:56 39.63523 -0.27843 31179 ft 441 kts 232°
2026-04-15 08:56 39.59317 -0.33610 31184 ft 441 kts 232°
2026-04-15 08:57 39.55144 -0.39322 31185 ft 441 kts 232°
2026-04-15 08:57 39.51052 -0.44910 31185 ft 441 kts 232°
2026-04-15 08:58 39.47081 -0.50824 31185 ft 437 kts 238°
2026-04-15 08:58 39.41631 -0.60135 31188 ft 436 kts 239°
2026-04-15 08:59 39.38000 -0.66331 31192 ft 435 kts 238°
2026-04-15 08:59 39.34385 -0.72482 31197 ft 435 kts 238°
2026-04-15 09:00 39.30723 -0.78700 31201 ft 435 kts 238°
2026-04-15 09:00 39.27101 -0.84835 31207 ft 434 kts 238°
2026-04-15 09:01 39.23452 -0.91004 31202 ft 435 kts 238°
2026-04-15 09:01 39.19783 -0.97196 31198 ft 434 kts 238°
2026-04-15 09:02 39.16132 -1.03344 31199 ft 434 kts 238°
2026-04-15 09:02 39.12476 -1.09489 31209 ft 433 kts 238°
2026-04-15 09:03 39.08834 -1.15600 31215 ft 432 kts 238°
2026-04-15 09:03 39.05171 -1.21730 31213 ft 433 kts 238°
2026-04-15 09:04 39.01544 -1.27792 31212 ft 432 kts 238°
2026-04-15 09:04 38.97903 -1.33867 31211 ft 432 kts 238°
2026-04-15 09:05 38.94264 -1.39926 31209 ft 431 kts 238°
2026-04-15 09:05 38.90599 -1.46017 31215 ft 431 kts 238°
2026-04-15 09:06 38.86946 -1.52078 31216 ft 430 kts 238°
2026-04-15 09:06 38.83286 -1.58140 31220 ft 430 kts 238°
2026-04-15 09:07 38.79648 -1.64151 31221 ft 431 kts 238°
2026-04-15 09:07 38.75978 -1.70206 31222 ft 431 kts 237°
2026-04-15 09:08 38.72318 -1.76230 31224 ft 431 kts 237°
2026-04-15 09:08 38.68651 -1.82252 31224 ft 431 kts 237°
2026-04-15 09:09 38.64983 -1.88268 31225 ft 431 kts 237°
2026-04-15 09:09 38.61315 -1.94271 31223 ft 430 kts 237°
2026-04-15 09:10 38.57669 -2.00224 31224 ft 430 kts 237°
2026-04-15 09:10 38.53984 -2.06230 31223 ft 428 kts 237°
2026-04-15 09:11 38.50310 -2.12210 31226 ft 428 kts 237°
2026-04-15 09:11 38.46640 -2.18176 31226 ft 429 kts 237°
2026-04-15 09:12 38.42966 -2.24134 31226 ft 428 kts 237°
2026-04-15 09:12 38.39357 -2.30122 31228 ft 426 kts 240°
2026-04-15 09:13 38.36513 -2.36672 31232 ft 420 kts 251°
2026-04-15 09:13 38.34739 -2.43630 31236 ft 414 kts 262°
2026-04-15 09:14 38.33588 -2.50805 31238 ft 414 kts 263°
2026-04-15 09:14 38.32464 -2.57963 31238 ft 414 kts 263°
2026-04-15 09:15 38.31333 -2.65071 31238 ft 414 kts 262°
2026-04-15 09:15 38.30190 -2.72193 31237 ft 414 kts 262°
2026-04-15 09:16 38.29043 -2.79303 31237 ft 414 kts 262°
2026-04-15 09:16 38.27878 -2.86492 31238 ft 414 kts 262°
2026-04-15 09:17 38.26724 -2.93583 31240 ft 414 kts 262°
2026-04-15 09:17 38.25552 -3.00758 31238 ft 414 kts 262°
2026-04-15 09:18 38.24379 -3.07902 31236 ft 414 kts 262°
2026-04-15 09:18 38.23209 -3.14994 31235 ft 413 kts 262°
2026-04-15 09:19 38.22030 -3.22119 31234 ft 413 kts 262°
2026-04-15 09:19 38.20846 -3.29253 31232 ft 413 kts 262°
2026-04-15 09:20 38.19657 -3.36381 31230 ft 412 kts 261°
2026-04-15 09:20 38.18473 -3.43457 31229 ft 412 kts 261°
2026-04-15 09:21 38.17273 -3.50580 31231 ft 412 kts 261°
2026-04-15 09:21 38.16084 -3.57623 31226 ft 411 kts 261°
2026-04-15 09:22 38.14720 -3.64690 31224 ft 414 kts 257°
2026-04-15 09:22 38.13061 -3.71524 31220 ft 413 kts 256°
2026-04-15 09:23 38.11350 -3.78506 31219 ft 413 kts 256°
2026-04-15 09:23 38.09644 -3.85454 31215 ft 413 kts 256°
2026-04-15 09:24 38.07941 -3.92374 31211 ft 414 kts 255°
2026-04-15 09:24 38.06229 -3.99309 31211 ft 414 kts 255°
2026-04-15 09:25 38.04510 -4.06256 31210 ft 413 kts 255°
2026-04-15 09:25 38.02789 -4.13187 31213 ft 413 kts 255°
2026-04-15 09:26 38.01069 -4.20097 31215 ft 413 kts 255°
2026-04-15 09:26 37.99347 -4.26996 31214 ft 412 kts 255°
2026-04-15 09:27 37.97616 -4.33913 31204 ft 411 kts 255°
2026-04-15 09:27 37.96757 -4.37334 30912 ft 406 kts 255°
2026-04-15 09:27 37.95901 -4.40738 30254 ft 406 kts 255°
2026-04-15 09:28 37.95053 -4.44113 29602 ft 406 kts 255°
2026-04-15 09:28 37.94196 -4.47519 28943 ft 406 kts 255°
2026-04-15 09:28 37.93337 -4.50922 28280 ft 405 kts 255°
2026-04-15 09:28 37.92497 -4.54246 27756 ft 401 kts 255°
2026-04-15 09:29 37.91646 -4.57611 27222 ft 398 kts 255°
2026-04-15 09:29 37.90813 -4.60897 26679 ft 395 kts 255°
2026-04-15 09:29 37.89981 -4.64176 26121 ft 392 kts 255°
2026-04-15 09:29 37.89146 -4.67462 25558 ft 390 kts 254°
2026-04-15 09:30 37.88327 -4.70685 25017 ft 387 kts 254°
2026-04-15 09:30 37.87536 -4.73788 24504 ft 384 kts 254°
2026-04-15 09:30 37.86699 -4.77070 23950 ft 382 kts 254°
2026-04-15 09:30 37.85892 -4.80229 23432 ft 379 kts 254°
2026-04-15 09:31 37.85114 -4.83371 22934 ft 376 kts 256°
2026-04-15 09:31 37.84470 -4.86561 22427 ft 373 kts 259°
2026-04-15 09:31 37.83959 -4.89744 21924 ft 370 kts 261°
2026-04-15 09:31 37.83470 -4.92922 21425 ft 368 kts 261°
2026-04-15 09:32 37.82990 -4.96052 20941 ft 366 kts 261°
2026-04-15 09:32 37.82505 -4.99202 20456 ft 364 kts 261°
2026-04-15 09:32 37.82021 -5.02336 19988 ft 362 kts 261°
2026-04-15 09:32 37.81545 -5.05434 19498 ft 360 kts 261°
2026-04-15 09:33 37.81067 -5.08512 19000 ft 358 kts 261°
2026-04-15 09:33 37.80586 -5.11598 18565 ft 356 kts 261°
2026-04-15 09:33 37.80110 -5.14650 18080 ft 354 kts 261°
2026-04-15 09:33 37.79636 -5.17680 17619 ft 352 kts 261°
2026-04-15 09:34 37.79164 -5.20686 17167 ft 350 kts 261°
2026-04-15 09:34 37.78696 -5.23671 16721 ft 348 kts 261°
2026-04-15 09:34 37.78222 -5.26684 16258 ft 347 kts 261°
2026-04-15 09:34 37.77755 -5.29652 15808 ft 345 kts 261°
2026-04-15 09:35 37.77293 -5.32587 15373 ft 343 kts 262°
2026-04-15 09:35 37.76830 -5.35518 14948 ft 341 kts 262°
2026-04-15 09:35 37.76366 -5.38452 14529 ft 339 kts 262°
2026-04-15 09:35 37.75905 -5.41356 14104 ft 337 kts 262°
2026-04-15 09:36 37.75446 -5.44247 13685 ft 335 kts 262°
2026-04-15 09:36 37.74992 -5.47108 13273 ft 333 kts 262°
2026-04-15 09:36 37.74537 -5.49972 12858 ft 331 kts 262°
2026-04-15 09:36 37.74087 -5.52801 12434 ft 330 kts 262°
2026-04-15 09:37 37.73640 -5.55603 12004 ft 328 kts 262°
2026-04-15 09:37 37.73185 -5.58448 11578 ft 327 kts 262°
2026-04-15 09:37 37.72742 -5.61217 11345 ft 319 kts 262°
2026-04-15 09:37 37.72311 -5.63894 11175 ft 309 kts 261°
2026-04-15 09:38 37.71886 -5.66524 11001 ft 300 kts 261°
2026-04-15 09:38 37.71477 -5.69067 10782 ft 294 kts 261°
2026-04-15 09:38 37.71072 -5.71587 10432 ft 293 kts 261°
2026-04-15 09:38 37.70665 -5.74111 10071 ft 292 kts 261°
2026-04-15 09:39 37.70263 -5.76605 9733 ft 291 kts 261°
2026-04-15 09:39 37.69863 -5.79086 9396 ft 289 kts 261°
2026-04-15 09:39 37.69461 -5.81561 9067 ft 288 kts 261°
2026-04-15 09:39 37.69064 -5.84010 8743 ft 286 kts 261°
2026-04-15 09:40 37.68665 -5.86468 8413 ft 285 kts 260°
2026-04-15 09:40 37.68269 -5.88898 8076 ft 284 kts 260°
2026-04-15 09:40 37.67876 -5.91310 7743 ft 282 kts 260°
2026-04-15 09:40 37.67484 -5.93713 7423 ft 281 kts 259°
2026-04-15 09:41 37.67086 -5.96141 7093 ft 279 kts 259°
2026-04-15 09:41 37.66699 -5.98505 6755 ft 279 kts 259°
2026-04-15 09:41 37.66275 -6.00885 6411 ft 279 kts 253°
2026-04-15 09:41 37.65283 -6.02968 6026 ft 280 kts 224°
2026-04-15 09:42 37.63740 -6.04437 5733 ft 277 kts 214°
2026-04-15 09:42 37.62153 -6.05778 5453 ft 274 kts 213°
2026-04-15 09:42 37.60589 -6.07106 5272 ft 267 kts 214°
2026-04-15 09:42 37.59074 -6.08411 5098 ft 260 kts 214°
2026-04-15 09:43 37.57608 -6.09687 4922 ft 254 kts 214°
2026-04-15 09:43 37.56166 -6.10950 4746 ft 249 kts 215°
2026-04-15 09:43 37.54750 -6.12192 4567 ft 244 kts 215°
2026-04-15 09:43 37.53360 -6.13413 4343 ft 242 kts 215°
2026-04-15 09:44 37.51979 -6.14582 4157 ft 238 kts 207°
2026-04-15 09:44 37.50408 -6.14992 3967 ft 230 kts 169°
2026-04-15 09:44 37.48894 -6.14488 3859 ft 221 kts 160°
2026-04-15 09:44 37.47453 -6.13890 3710 ft 216 kts 160°
2026-04-15 09:45 37.46030 -6.13323 3509 ft 216 kts 161°
2026-04-15 09:45 37.44582 -6.12782 3303 ft 214 kts 162°
2026-04-15 09:45 37.43173 -6.12263 3178 ft 213 kts 156°
2026-04-15 09:45 37.42024 -6.11164 3105 ft 205 kts 121°
2026-04-15 09:46 37.41606 -6.09556 2929 ft 193 kts 94°
2026-04-15 09:46 37.41629 -6.07880 2654 ft 190 kts 84°
2026-04-15 09:46 37.41715 -6.06241 2384 ft 187 kts 85°
2026-04-15 09:46 37.41757 -6.04627 2125 ft 184 kts 87°
2026-04-15 09:47 37.41766 -6.03076 1868 ft 173 kts 87°
2026-04-15 09:47 37.41766 -6.01639 1680 ft 162 kts 87°
2026-04-15 09:47 37.41766 -6.00230 1472 ft 159 kts 87°
2026-04-15 09:47 37.41768 -5.98946 1267 ft 149 kts 87°
2026-04-15 09:48 37.41771 -5.97695 1006 ft 140 kts 87°
2026-04-15 09:48 37.41771 -5.96502 812 ft 137 kts 87°
2026-04-15 09:48 37.41775 -5.95318 650 ft 137 kts 88°
2026-04-15 09:48 37.41777 -5.94120 489 ft 137 kts 87°
2026-04-15 09:49 37.41782 -5.92943 327 ft 136 kts 88°
2026-04-15 09:49 37.41787 -5.91747 172 ft 135 kts 88°
2026-04-15 09:49 37.41790 -5.90592 82 ft 129 kts 88°
2026-04-15 09:49 37.41791 -5.89667 87 ft 80 kts 90°
2026-04-15 09:50 37.41798 -5.89303 88 ft 10 kts 82°
2026-04-15 09:50 37.41848 -5.89265 89 ft 9 kts 347°
2026-04-15 09:50 37.41904 -5.89308 89 ft 10 kts 328°
2026-04-15 09:50 37.41968 -5.89352 90 ft 10 kts 330°
2026-04-15 09:51 37.42025 -5.89412 91 ft 11 kts 315°
2026-04-15 09:51 37.42092 -5.89499 91 ft 18 kts 314°
2026-04-15 09:51 37.42194 -5.89628 91 ft 21 kts 314°
2026-04-15 09:51 37.42259 -5.89746 93 ft 9 kts 267°
2026-04-15 09:52 37.42281 -5.89816 93 ft 6 kts 314°
2026-04-15 09:52 37.42297 -5.89837 93 ft 0 kts 314°